DL1MMS-10 Weather Reports


Display with metric or nautical units.
time (UTC)temp
F
wind
direction
speed
MPH
gust
MPH
rain 1hr
in
rain 24hr
in
rain mn
in
humidity
%
barometer
mb
20260831215534 58 0 0.0 0.0 0.00 0.00 0.00 68 1022.3
20260831215033 59 0 0.0 0.0 0.00 0.00 0.00 68 1022.2
20260831214533 59 0 0.0 0.0 0.00 0.00 0.00 67 1022.2
20260831214033 59 0 0.0 0.0 0.00 0.00 0.00 66 1022.2
20260831213533 60 0 0.0 0.0 0.00 0.00 0.00 66 1022.2
20260831213032 60 0 0.0 0.0 0.00 0.00 0.00 66 1022.2
20260831212532 60 0 0.0 0.0 0.00 0.00 0.00 65 1022.2
20260831212032 60 0 0.0 0.0 0.00 0.00 0.00 65 1022.2
20260831211531 61 0 0.0 0.0 0.00 0.00 0.00 65 1022.2
20260831211031 61 0 0.0 0.0 0.00 0.00 0.00 65 1022.3
20260831210531 61 0 0.0 0.0 0.00 0.00 0.00 66 1022.3
20260831210031 61 0 0.0 0.0 0.00 0.00 0.00 66 1022.2
20260831205530 61 0 0.0 0.0 0.00 0.00 0.00 67 1022.1
20260831205030 61 0 0.0 0.0 0.00 0.00 0.00 67 1022.0
20260831204530 62 0 0.0 0.0 0.00 0.00 0.00 67 1021.8
20260831204029 62 0 0.0 0.0 0.00 0.00 0.00 68 1022.1
20260831203529 62 0 0.0 0.0 0.00 0.00 0.00 68 1022.0
20260831203029 62 0 0.0 0.0 0.00 0.00 0.00 68 1021.9
20260831202529 62 0 0.0 0.0 0.00 0.00 0.00 68 1021.7
20260831202028 62 0 0.0 0.0 0.00 0.00 0.00 69 1021.6
20260831201528 62 0 0.0 0.0 0.00 0.00 0.00 70 1021.7
20260831201028 62 0 0.0 0.0 0.00 0.00 0.00 70 1021.6
20260831200527 62 0 0.0 0.0 0.00 0.00 0.00 70 1021.5
20260831200027 62 0 0.0 0.0 0.00 0.00 0.00 71 1021.3
20260831195527 62 0 0.0 0.0 0.00 0.00 0.00 71 1021.3
20260831195027 62 0 0.0 0.0 0.00 0.00 0.00 71 1021.2
20260831194526 62 0 0.0 0.0 0.00 0.00 0.00 71 1021.3
20260831194026 62 0 0.0 0.0 0.00 0.00 0.00 71 1021.2
20260831193526 62 0 0.0 0.0 0.00 0.00 0.00 71 1021.0
20260831193025 62 0 0.0 0.0 0.00 0.00 0.00 71 1020.9
20260831192525 63 0 0.0 0.0 0.00 0.00 0.00 70 1020.9
20260831192025 63 0 0.0 0.0 0.00 0.00 0.00 70 1020.9
20260831191525 63 0 0.0 0.0 0.00 0.00 0.00 69 1020.6
20260831191024 63 0 0.0 0.0 0.00 0.00 0.00 69 1020.5
20260831190524 63 0 0.0 0.0 0.00 0.00 0.00 68 1020.5
20260831190024 64 0 0.0 0.0 0.00 0.00 0.00 68 1020.4
20260831185523 64 0 0.0 0.0 0.00 0.00 0.00 68 1020.4
20260831185023 64 0 0.0 0.0 0.00 0.00 0.00 67 1020.3
20260831184523 64 0 0.0 0.0 0.00 0.00 0.00 67 1020.3
20260831184023 64 0 0.0 0.0 0.00 0.00 0.00 66 1020.2
20260831183522 65 0 0.0 0.0 0.00 0.00 0.00 66 1020.2
20260831183022 65 0 0.0 0.0 0.00 0.00 0.00 66 1020.1
20260831182522 65 0 0.0 0.0 0.00 0.00 0.00 65 1020.0
20260831182021 66 0 0.0 0.0 0.00 0.00 0.00 65 1019.9
20260831181521 66 0 0.0 0.0 0.00 0.00 0.00 65 1019.7
20260831181021 66 0 0.0 0.0 0.00 0.00 0.00 64 1019.7
20260831180521 66 0 0.0 0.0 0.00 0.00 0.00 63 1019.7
20260831180020 67 0 0.0 0.0 0.00 0.00 0.00 62 1019.7
20260831175520 67 0 0.0 0.0 0.00 0.00 0.00 62 1019.5
20260831175020 67 0 0.0 0.0 0.00 0.00 0.00 61 1019.4
20260831174520 67 0 0.0 0.0 0.00 0.00 0.00 61 1019.3
20260831174019 68 0 0.0 0.0 0.00 0.00 0.00 60 1019.1
20260831173519 68 0 0.0 0.0 0.00 0.00 0.00 59 1019.4
20260831173019 69 0 0.0 0.0 0.00 0.00 0.00 58 1019.2
20260831172518 69 0 0.0 0.0 0.00 0.00 0.00 58 1019.1
20260831172018 69 0 0.0 0.0 0.00 0.00 0.00 57 1019.0
20260831171518 69 0 0.0 0.0 0.00 0.00 0.00 57 1018.9
20260831171018 70 0 0.0 0.0 0.00 0.00 0.00 56 1018.9
20260831170517 70 0 0.0 0.0 0.00 0.00 0.00 55 1018.9
20260831170017 71 0 0.0 0.0 0.00 0.00 0.00 54 1018.8
20260831165517 71 0 0.0 0.0 0.00 0.00 0.00 53 1018.9
20260831165016 72 0 0.0 0.0 0.00 0.00 0.00 51 1018.8
20260831164516 72 0 0.0 0.0 0.00 0.00 0.00 49 1018.8
20260831164016 73 0 0.0 0.0 0.00 0.00 0.00 48 1018.9
20260831163516 74 0 0.0 0.0 0.00 0.00 0.00 47 1018.9
20260831163015 75 0 0.0 0.0 0.00 0.00 0.00 44 1018.7
20260831162515 78 0 0.0 0.0 0.00 0.00 0.00 42 1018.8
20260831162015 80 0 0.0 0.0 0.00 0.00 0.00 40 1018.8
20260831161514 82 0 0.0 0.0 0.00 0.00 0.00 38 1018.9
20260831161014 84 0 0.0 0.0 0.00 0.00 0.00 38 1018.9
20260831160514 83 0 0.0 0.0 0.00 0.00 0.00 39 1018.8
20260831160014 81 0 0.0 0.0 0.00 0.00 0.00 43 1018.8
20260831155513 77 0 0.0 0.0 0.00 0.00 0.00 46 1018.8
20260831155013 74 0 0.0 0.0 0.00 0.00 0.00 49 1018.6
20260831154513 72 0 0.0 0.0 0.00 0.00 0.00 51 1018.7
20260831154012 72 0 0.0 0.0 0.00 0.00 0.00 52 1018.7
20260831153512 71 0 0.0 0.0 0.00 0.00 0.00 54 1018.8
20260831153012 71 0 0.0 0.0 0.00 0.00 0.00 55 1018.9
20260831152512 70 0 0.0 0.0 0.00 0.00 0.00 55 1018.8
20260831152011 71 0 0.0 0.0 0.00 0.00 0.00 54 1018.8
20260831151511 71 0 0.0 0.0 0.00 0.00 0.00 53 1018.9
20260831151011 71 0 0.0 0.0 0.00 0.00 0.00 52 1019.0
20260831150510 71 0 0.0 0.0 0.00 0.00 0.00 52 1018.8
20260831150010 71 0 0.0 0.0 0.00 0.00 0.00 51 1018.9
20260831145510 71 0 0.0 0.0 0.00 0.00 0.00 50 1018.9
20260831145010 72 0 0.0 0.0 0.00 0.00 0.00 50 1018.9
20260831144509 72 0 0.0 0.0 0.00 0.00 0.00 50 1019.0
20260831144009 72 0 0.0 0.0 0.00 0.00 0.00 49 1019.1
20260831143509 73 0 0.0 0.0 0.00 0.00 0.00 48 1019.1
20260831143008 74 0 0.0 0.0 0.00 0.00 0.00 46 1019.1
20260831142508 75 0 0.0 0.0 0.00 0.00 0.00 44 1019.1
20260831142008 78 0 0.0 0.0 0.00 0.00 0.00 43 1019.0
20260831141508 79 0 0.0 0.0 0.00 0.00 0.00 43 1018.8
20260831141007 79 0 0.0 0.0 0.00 0.00 0.00 43 1019.0
20260831140507 78 0 0.0 0.0 0.00 0.00 0.00 43 1018.8
20260831140007 76 0 0.0 0.0 0.00 0.00 0.00 46 1019.1
20260831135506 75 0 0.0 0.0 0.00 0.00 0.00 46 1019.0
20260831135006 75 0 0.0 0.0 0.00 0.00 0.00 46 1019.0
20260831134506 76 0 0.0 0.0 0.00 0.00 0.00 45 1018.9
20260831134006 77 0 0.0 0.0 0.00 0.00 0.00 44 1018.9
20260831133505 80 0 0.0 0.0 0.00 0.00 0.00 41 1018.9
20260831133005 83 0 0.0 0.0 0.00 0.00 0.00 39 1019.0
20260831132505 84 0 0.0 0.0 0.00 0.00 0.00 40 1019.0
20260831132004 83 0 0.0 0.0 0.00 0.00 0.00 41 1018.9
20260831131504 81 0 0.0 0.0 0.00 0.00 0.00 44 1019.1
20260831131004 78 0 0.0 0.0 0.00 0.00 0.00 44 1019.0
20260831130504 79 0 0.0 0.0 0.00 0.00 0.00 43 1019.0
20260831130004 81 0 0.0 0.0 0.00 0.00 0.00 42 1019.0
20260831125503 84 0 0.0 0.0 0.00 0.00 0.00 39 1019.0
20260831125003 85 0 0.0 0.0 0.00 0.00 0.00 39 1019.0
20260831124502 85 0 0.0 0.0 0.00 0.00 0.00 39 1019.0
20260831124002 84 0 0.0 0.0 0.00 0.00 0.00 43 1019.0
20260831123502 83 0 0.0 0.0 0.00 0.00 0.00 43 1018.9
20260831123002 83 0 0.0 0.0 0.00 0.00 0.00 43 1019.0
20260831122501 83 0 0.0 0.0 0.00 0.00 0.00 44 1019.1
20260831122001 83 0 0.0 0.0 0.00 0.00 0.00 44 1019.0
20260831121501 83 0 0.0 0.0 0.00 0.00 0.00 45 1019.0
20260831121000 80 0 0.0 0.0 0.00 0.00 0.00 47 1019.0
20260831120500 82 0 0.0 0.0 0.00 0.00 0.00 46 1019.1
20260831120000 83 0 0.0 0.0 0.00 0.00 0.00 45 1019.1
20260831115500 82 0 0.0 0.0 0.00 0.00 0.00 47 1019.1
20260831114959 80 0 0.0 0.0 0.00 0.00 0.00 50 1019.1
20260831114459 77 0 0.0 0.0 0.00 0.00 0.00 53 1019.1
20260831113959 76 0 0.0 0.0 0.00 0.00 0.00 56 1019.2
20260831113458 73 0 0.0 0.0 0.00 0.00 0.00 57 1019.3
20260831112958 73 0 0.0 0.0 0.00 0.00 0.00 57 1019.2
20260831112458 74 0 0.0 0.0 0.00 0.00 0.00 55 1019.3
20260831111958 75 0 0.0 0.0 0.00 0.00 0.00 53 1019.3
20260831111457 76 0 0.0 0.0 0.00 0.00 0.00 52 1019.4
20260831110957 79 0 0.0 0.0 0.00 0.00 0.00 49 1019.3
20260831110457 82 0 0.0 0.0 0.00 0.00 0.00 48 1019.3
20260831105957 79 0 0.0 0.0 0.00 0.00 0.00 51 1019.2
20260831105456 77 0 0.0 0.0 0.00 0.00 0.00 52 1019.2
20260831104956 78 0 0.0 0.0 0.00 0.00 0.00 53 1019.2
20260831104456 79 0 0.0 0.0 0.00 0.00 0.00 52 1019.1
20260831103955 76 0 0.0 0.0 0.00 0.00 0.00 57 1019.1
20260831103455 74 0 0.0 0.0 0.00 0.00 0.00 57 1019.3
20260831102955 75 0 0.0 0.0 0.00 0.00 0.00 57 1019.3
20260831102455 75 0 0.0 0.0 0.00 0.00 0.00 57 1019.3
20260831101954 75 0 0.0 0.0 0.00 0.00 0.00 57 1019.4
20260831101454 75 0 0.0 0.0 0.00 0.00 0.00 56 1019.3
20260831100954 78 0 0.0 0.0 0.00 0.00 0.00 55 1019.2
20260831100453 75 0 0.0 0.0 0.00 0.00 0.00 59 1019.2
20260831095953 70 0 0.0 0.0 0.00 0.00 0.00 64 1019.4
20260831095453 69 0 0.0 0.0 0.00 0.00 0.00 66 1019.5
20260831094953 69 0 0.0 0.0 0.00 0.00 0.00 67 1019.3
20260831094452 69 0 0.0 0.0 0.00 0.00 0.00 67 1019.4
20260831093952 69 0 0.0 0.0 0.00 0.00 0.00 67 1019.4
20260831093452 68 0 0.0 0.0 0.00 0.00 0.00 67 1019.5
20260831092951 68 0 0.0 0.0 0.00 0.00 0.00 68 1019.4
20260831092451 68 0 0.0 0.0 0.00 0.00 0.00 69 1019.4
20260831091951 68 0 0.0 0.0 0.00 0.00 0.00 69 1019.5
20260831091451 68 0 0.0 0.0 0.00 0.00 0.00 69 1019.5
20260831090950 68 0 0.0 0.0 0.00 0.00 0.00 68 1019.5
20260831090450 68 0 0.0 0.0 0.00 0.00 0.00 68 1019.4
20260831085950 68 0 0.0 0.0 0.00 0.00 0.00 69 1019.4
20260831085449 68 0 0.0 0.0 0.00 0.00 0.00 70 1019.4
20260831084949 68 0 0.0 0.0 0.00 0.00 0.00 71 1019.4
20260831084449 67 0 0.0 0.0 0.00 0.00 0.00 71 1019.3
20260831083949 67 0 0.0 0.0 0.00 0.00 0.00 72 1019.2
20260831083448 67 0 0.0 0.0 0.00 0.00 0.00 71 1019.2
20260831082948 67 0 0.0 0.0 0.00 0.00 0.00 72 1019.2
20260831082448 67 0 0.0 0.0 0.00 0.00 0.00 71 1019.1
20260831081947 67 0 0.0 0.0 0.00 0.00 0.00 72 1019.0
20260831081447 66 0 0.0 0.0 0.00 0.00 0.00 72 1019.1
20260831080947 66 0 0.0 0.0 0.00 0.00 0.00 72 1019.0
20260831080447 66 0 0.0 0.0 0.00 0.00 0.00 72 1019.0
20260831075946 66 0 0.0 0.0 0.00 0.00 0.00 72 1018.9
20260831075446 66 0 0.0 0.0 0.00 0.00 0.00 72 1018.7
20260831074946 66 0 0.0 0.0 0.00 0.00 0.00 74 1018.7
20260831074445 66 0 0.0 0.0 0.00 0.00 0.00 74 1018.8
20260831073945 66 0 0.0 0.0 0.00 0.00 0.00 75 1018.8
20260831073445 66 0 0.0 0.0 0.00 0.00 0.00 75 1018.6
20260831072945 66 0 0.0 0.0 0.00 0.00 0.00 76 1018.6
20260831072444 65 0 0.0 0.0 0.00 0.00 0.00 77 1018.6
20260831071944 65 0 0.0 0.0 0.00 0.00 0.00 79 1018.6
20260831071444 64 0 0.0 0.0 0.00 0.00 0.00 79 1018.6
20260831070943 64 0 0.0 0.0 0.00 0.00 0.00 79 1018.5
20260831070443 64 0 0.0 0.0 0.00 0.00 0.00 78 1018.4
20260831065943 65 0 0.0 0.0 0.00 0.00 0.00 78 1018.4
20260831065443 65 0 0.0 0.0 0.00 0.00 0.00 78 1018.5
20260831064942 65 0 0.0 0.0 0.00 0.00 0.00 79 1018.4
20260831064442 64 0 0.0 0.0 0.00 0.00 0.00 79 1018.4
20260831063942 64 0 0.0 0.0 0.00 0.00 0.00 79 1018.3
20260831063441 64 0 0.0 0.0 0.00 0.00 0.00 80 1018.3
20260831062941 64 0 0.0 0.0 0.00 0.00 0.00 81 1018.2
20260831062441 63 0 0.0 0.0 0.00 0.00 0.00 81 1018.2
20260831061941 63 0 0.0 0.0 0.00 0.00 0.00 81 1018.1
20260831061440 63 0 0.0 0.0 0.00 0.00 0.00 82 1018.1
20260831060940 62 0 0.0 0.0 0.00 0.00 0.00 82 1018.1
20260831060440 62 0 0.0 0.0 0.00 0.00 0.00 84 1018.1
20260831055940 62 0 0.0 0.0 0.00 0.00 0.00 84 1018.1
20260831055439 61 0 0.0 0.0 0.00 0.00 0.00 100 1018.0
20260831054939 61 0 0.0 0.0 0.00 0.00 0.00 85 1018.0
20260831054439 60 0 0.0 0.0 0.00 0.00 0.00 85 1018.1
20260831053938 60 0 0.0 0.0 0.00 0.00 0.00 86 1018.1
20260831053438 60 0 0.0 0.0 0.00 0.00 0.00 86 1018.0
20260831052938 59 0 0.0 0.0 0.00 0.00 0.00 86 1018.0
20260831052437 59 0 0.0 0.0 0.00 0.00 0.00 87 1018.0
20260831051937 59 0 0.0 0.0 0.00 0.00 0.00 87 1018.1
20260831051437 59 0 0.0 0.0 0.00 0.00 0.00 87 1018.1
20260831050937 59 0 0.0 0.0 0.00 0.00 0.00 87 1018.2
20260831050436 58 0 0.0 0.0 0.00 0.00 0.00 87 1018.1
20260831045936 58 0 0.0 0.0 0.00 0.00 0.00 87 1018.2
20260831045436 58 0 0.0 0.0 0.00 0.00 0.00 87 1018.1
20260831044936 58 0 0.0 0.0 0.00 0.00 0.00 86 1018.1
20260831044435 58 0 0.0 0.0 0.00 0.00 0.00 86 1018.0
20260831043935 59 0 0.0 0.0 0.00 0.00 0.00 86 1017.9
20260831043435 59 0 0.0 0.0 0.00 0.00 0.00 86 1017.9
20260831042934 59 0 0.0 0.0 0.00 0.00 0.00 86 1018.0
20260831042434 59 0 0.0 0.0 0.00 0.00 0.00 86 1017.9
20260831041934 59 0 0.0 0.0 0.00 0.00 0.00 86 1017.9
20260831041434 59 0 0.0 0.0 0.00 0.00 0.00 86 1017.9
20260831040933 60 0 0.0 0.0 0.00 0.00 0.00 86 1017.9
20260831040433 60 0 0.0 0.0 0.00 0.00 0.00 86 1017.9
20260831035933 60 0 0.0 0.0 0.00 0.00 0.00 87 1018.0
20260831035432 60 0 0.0 0.0 0.00 0.00 0.00 87 1017.9
20260831034932 60 0 0.0 0.0 0.00 0.00 0.00 87 1017.9
20260831034432 60 0 0.0 0.0 0.00 0.00 0.00 87 1017.8
20260831033932 60 0 0.0 0.0 0.00 0.00 0.00 87 1017.9
20260831033431 60 0 0.0 0.0 0.00 0.00 0.00 88 1017.8
20260831032931 59 0 0.0 0.0 0.00 0.00 0.00 88 1017.8
20260831032431 59 0 0.0 0.0 0.00 0.00 0.00 88 1017.9
20260831031930 59 0 0.0 0.0 0.00 0.00 0.00 88 1017.8
20260831031430 59 0 0.0 0.0 0.00 0.00 0.00 88 1017.8
20260831030930 59 0 0.0 0.0 0.00 0.00 0.00 87 1018.0
20260831030430 58 0 0.0 0.0 0.00 0.00 0.00 87 1018.0
20260831025929 58 0 0.0 0.0 0.00 0.00 0.00 87 1018.1
20260831025429 59 0 0.0 0.0 0.00 0.00 0.00 87 1018.3
20260831024929 59 0 0.0 0.0 0.00 0.00 0.00 86 1018.3
20260831024428 59 0 0.0 0.0 0.00 0.00 0.00 86 1018.1
20260831023928 59 0 0.0 0.0 0.00 0.00 0.00 85 1018.2
20260831023428 60 0 0.0 0.0 0.00 0.00 0.00 85 1018.2
20260831022928 60 0 0.0 0.0 0.00 0.00 0.00 85 1018.4
20260831022427 61 0 0.0 0.0 0.00 0.00 0.00 84 1018.5
20260831021927 61 0 0.0 0.0 0.00 0.00 0.00 83 1018.4
20260831021427 63 0 0.0 0.0 0.00 0.00 0.00 81 1018.5
20260831020926 63 0 0.0 0.0 0.00 0.00 0.00 80 1018.3
20260831020426 61 0 0.0 0.0 0.00 0.00 0.00 82 1018.0
20260831015926 61 0 0.0 0.0 0.00 0.00 0.00 84 1017.1
20260831015426 61 0 0.0 0.0 0.00 0.00 0.00 84 1015.7
20260831014925 61 0 0.0 0.0 0.00 0.00 0.00 83 1015.7
20260831014425 61 0 0.0 0.0 0.00 0.00 0.00 83 1015.7
20260831013925 61 0 0.0 0.0 0.00 0.00 0.00 84 1015.6
20260831013424 61 0 0.0 0.0 0.00 0.00 0.00 84 1015.4
20260831012924 61 0 0.0 0.0 0.00 0.00 0.00 84 1015.4
20260831012424 61 0 0.0 0.0 0.00 0.00 0.00 84 1015.5
20260831011924 61 0 0.0 0.0 0.00 0.00 0.00 84 1015.4
20260831011423 61 0 0.0 0.0 0.00 0.00 0.00 84 1015.4
20260831010923 61 0 0.0 0.0 0.00 0.00 0.00 85 1015.3
20260831010423 61 0 0.0 0.0 0.00 0.00 0.00 85 1015.5
20260831005923 61 0 0.0 0.0 0.00 0.00 0.00 85 1015.4
20260831005422 61 0 0.0 0.0 0.00 0.00 0.00 85 1015.5
20260831004922 61 0 0.0 0.0 0.00 0.00 0.00 85 1015.5
20260831004422 61 0 0.0 0.0 0.00 0.00 0.00 85 1015.5
20260831003921 61 0 0.0 0.0 0.00 0.00 0.00 85 1015.3
20260831003421 61 0 0.0 0.0 0.00 0.00 0.00 85 1015.6
20260831002921 61 0 0.0 0.0 0.00 0.00 0.00 85 1016.1
20260831002421 61 0 0.0 0.0 0.00 0.00 0.00 84 1015.8
20260831001920 61 0 0.0 0.0 0.00 0.00 0.00 83 1016.4
20260831001420 61 0 0.0 0.0 0.00 0.00 0.00 83 1016.3
20260831000920 61 0 0.0 0.0 0.00 0.00 0.00 83 1016.3
20260831000419 61 0 0.0 0.0 0.00 0.00 0.00 83 1016.2
20260830235919 61 0 0.0 0.0 0.00 0.00 0.00 83 1016.1
20260830235419 61 0 0.0 0.0 0.00 0.00 0.00 83 1016.1
20260830234919 61 0 0.0 0.0 0.00 0.00 0.00 83 1015.9
20260830234418 61 0 0.0 0.0 0.00 0.00 0.00 83 1015.9
20260830233918 61 0 0.0 0.0 0.00 0.00 0.00 83 1016.0
20260830233418 61 0 0.0 0.0 0.00 0.00 0.00 82 1016.1
20260830232917 62 0 0.0 0.0 0.00 0.00 0.00 82 1016.0
20260830232417 62 0 0.0 0.0 0.00 0.00 0.00 82 1016.1
20260830231917 62 0 0.0 0.0 0.00 0.00 0.00 82 1016.1
20260830231417 62 0 0.0 0.0 0.00 0.00 0.00 82 1016.3
20260830230916 62 0 0.0 0.0 0.00 0.00 0.00 82 1016.3
20260830230416 62 0 0.0 0.0 0.00 0.00 0.00 82 1016.4
20260830225916 62 0 0.0 0.0 0.00 0.00 0.00 82 1016.5
20260830225415 63 0 0.0 0.0 0.00 0.00 0.00 82 1016.5
20260830224915 63 0 0.0 0.0 0.00 0.00 0.00 81 1016.6
20260830224415 63 0 0.0 0.0 0.00 0.00 0.00 81 1016.5
20260830223915 63 0 0.0 0.0 0.00 0.00 0.00 81 1016.6
20260830223414 63 0 0.0 0.0 0.00 0.00 0.00 81 1016.6
20260830222914 63 0 0.0 0.0 0.00 0.00 0.00 81 1016.8
20260830222414 63 0 0.0 0.0 0.00 0.00 0.00 81 1016.9
20260830221913 63 0 0.0 0.0 0.00 0.00 0.00 81 1016.7
20260830221413 63 0 0.0 0.0 0.00 0.00 0.00 81 1016.7
20260830220913 63 0 0.0 0.0 0.00 0.00 0.00 81 1016.7
20260830220413 63 0 0.0 0.0 0.00 0.00 0.00 81 1016.8
20260830215912 63 0 0.0 0.0 0.00 0.00 0.00 81 1016.8